{"data":{"norad_id":62852,"intl_designator":"2025-021A","name":"SPAINSAT NG I","alt_names":[],"object_type":"PAYLOAD","status":"ACTIVE","operator":null,"country":"SPN","launch_date":"2025-01-30","launch_site_code":"AFETR","launch_vehicle":null,"mission":null,"orbit_class":"UNKNOWN","rcs_meters":null,"size_class":null,"mass_kg":null,"dimensions":null,"purposes":["comms"],"wikipedia_slug":null,"has_3d_model":false,"image_url":null,"decayed_at":null,"tle_current":{"epoch":"2026-09-19T05:08:05.858016Z","epoch_age_seconds":129309,"freshness":"FRESH","line1":"1 62852U 25021A   26262.21395669  .00000000  00000+0  00000+0 0  9990","line2":"2 62852   0.0165 157.3639 0000398 324.7884 341.9871  1.00272449  4935","mean_motion":1.00272449,"eccentricity":3.98e-5,"inclination_deg":0.0165,"raan_deg":157.3639,"arg_perigee_deg":324.7884,"mean_anomaly_deg":341.9871,"bstar":0,"rev_number":493,"period_min":1436.0873942552,"perigee_km":35784.73066999,"apogee_km":35788.086967838,"semimajor_km":42164.545818914,"source":"CELESTRAK","updated_at":"2026-09-20T09:00:35.342073Z"}}}